Starlink 3207

operational
NORAD ID: 49756 Int'l Des: 2021-115 Owner: SPXS Country: US Constellation: starlink
LEOCIRCULAR

关于 Starlink 3207

正在加载描述...

实时位置

正在加载3D地球...

即将过境

高度历史

Altitude vs Time

uPlot chart will show altitude changes over time

两行轨道根数

1 49756U 21115AJ 25306.43990977 .00000428 00000-0 44989-4 0 9997
2 49756 53.2183 350.3683 0001443 91.1564 268.9593 15.08841980216466
Epoch: Nov 2, 2025 • Age: 10 hours

当前状态

高度 539.7 km
速度 7.59 km/s
星下点 10.10°N, 11.56°E
发射日期 Dec 2, 2021
运行时间 3.9 years
类型 internet

技术详情

分类 Payload
质量 290.00 kg
干质量 270.00 kg
总质量 290.00 kg
长度 0.20 m
直径 2.80 m
跨度 9.00 m
形状 Box + pan
制造商 SPXS
平台类型 Starlink
阶段状态 In Orbit
所有者/国家 SPXS/US

大型星座

Loading constellations...